Location: College Park
(38.9810°N, 76.9370°W)
Time: 14:21:53
(UTC-05:00)

Hubble Space Telescope - Pass Details

Date: 12 January 2018
Orbit: 537 x 541 km, 28.5° (Epoch: 19 January)

Event Time Altitude Azimuth Distance (km) Brightness Sun altitude
Exits shadow 05:25:45 10° 192° (SSW) 1,784 3.4 -22.9°
Drops below altitude 10° 05:25:50 10° 191° (SSW) 1,788 3.4 -22.9°
Sets 05:30:16 0° 147° (SSE) 2,672 5.0 -22.0°
